Probability
1 1 1 3 1 0 0 0 0 0 0 0 0 0 0 0 0 0 0 0 0 0 1 2 1 0 1 2 3 3 2 2 2 2 3 4 5 5 4 4 2 1 0 0 0 0 0 0 0
1 1 1 2 1 0 0 0 0 0 0 0 0 0 0 0 0 0 0 0 0 0 1 1 1 0 1 2 2 2 1 1 1 1 3 4 4 4 4 3 2 0 0 0 0 0 0 0 0
3 3 2 1 1 0 0 0 0 0 1 1 0 0 0 0 0 0 0 0 0 0 0 1 2 1 0 1 2 1 0 0 0 1 2 3 4 4 4 3 2 1 0 0 0 0 0 0 0
4 4 3 2 1 0 0 0 0 0 1 2 1 0 0 0 0 0 0 0 0 0 0 1 2 2 1 1 2 1 0 0 0 0 1 2 3 3 3 3 3 1 0 0 0 0 0 0 0
3 3 2 1 1 0 0 0 0 0 2 2 1 0 0 0 0 0 0 0 0 0 0 1 2 2 2 2 3 2 1 0 0 0 0 0 1 2 3 3 3 2 0 0 0 0 0 0 0
3 2 1 0 0 0 1 1 1 1 3 3 1 0 0 0 0 0 0 0 0 0 0 1 1 1 1 3 3 2 1 0 0 0 0 0 0 1 3 3 3 1 0 0 0 0 0 0 0
3 2 1 0 0 0 1 1 1 2 3 3 2 0 0 1 1 0 0 0 0 0 0 0 0 0 1 3 4 2 1 0 0 0 0 0 0 1 2 3 2 1 0 0 0 0 0 0 0
2 1 0 0 0 0 0 0 1 2 3 3 2 1 1 2 2 1 0 0 0 0 0 0 0 0 1 2 3 2 1 0 0 0 0 0 0 1 2 3 2 1 0 0 1 2 1 0 0
1 0 0 0 1 1 1 1 0 1 1 2 2 2 3 4 5 3 1 0 0 0 0 0 0 0 0 1 1 1 0 0 0 0 0 0 0 1 2 3 3 1 1 1 2 3 2 1 0
0 0 0 0 2 3 3 2 1 1 2 2 3 5 6 7 7 5 3 1 0 0 0 0 0 0 0 0 0 0 0 0 0 0 0 0 0 0 1 3 3 2 2 2 2 2 2 1 0
0 0 0 0 2 4 4 2 1 1 2 3 4 6 7 8 9 6 5 3 2 0 0 0 0 0 0 0 0 0 0 0 0 0 0 0 0 0 1 2 2 1 1 1 1 1 1 0 0
0 0 0 0 1 3 4 2 1 1 2 3 4 4 5 7 7 6 6 5 4 2 0 0 0 0 0 0 0 0 1 2 1 0 0 0 0 0 0 1 1 0 0 0 0 0 0 0 0
0 0 0 0 0 2 3 3 3 3 4 4 4 4 4 4 5 5 5 5 5 3 1 0 1 1 0 0 0 0 1 2 1 1 1 1 0 0 0 0 0 0 0 0 0 0 0 0 0
0 0 0 0 0 1 2 2 3 6 6 6 6 6 4 3 3 2 2 3 4 4 4 3 3 2 1 1 0 0 1 1 1 1 1 1 1 0 0 0 0 0 0 0 0 0 0 0 0
0 0 0 0 0 0 0 1 3 7 8 7 7 8 7 6 4 2 1 1 2 5 7 7 6 4 3 2 2 1 1 1 1 1 1 1 1 1 1 0 0 0 0 0 0 0 0 0 0
0 0 0 0 0 0 0 1 3 7 9 7 7 9 10 9 7 5 2 1 3 6 10 10 8 6 4 4 4 4 4 3 2 1 0 0 1 2 1 0 0 0 0 0 0 0 0 0 0
0 0 0 0 0 0 0 1 3 6 8 7 7 10 11 10 9 8 6 5 5 7 9 10 8 6 5 5 5 4 4 3 3 1 0 0 1 1 1 0 0 0 0 0 0 0 0 0 0
0 0 0 0 0 0 0 0 1 4 6 7 8 11 12 11 10 10 10 10 8 8 8 8 7 5 5 6 5 4 3 3 2 1 0 0 0 0 0 0 0 0 0 0 0 0 0 0 0
0 0 0 0 0 0 0 0 1 3 6 9 13 15 15 13 12 13 13 14 14 11 9 8 6 5 6 6 5 4 3 2 1 0 0 0 0 0 0 0 0 0 0 0 0 0 0 0 0
0 0 0 0 0 0 0 0 2 3 5 9 15 18 17 15 14 14 15 17 18 16 12 9 7 7 8 7 5 3 3 1 0 0 0 0 0 0 0 0 0 0 0 0 0 1 1 0 0
0 0 0 0 0 0 0 0 1 3 3 6 12 17 18 17 16 15 16 18 21 21 16 11 9 9 10 9 6 5 3 2 1 0 1 1 1 1 1 1 0 0 0 0 1 1 1 0 0
0 0 0 0 0 0 0 0 1 2 3 4 8 13 17 18 18 18 17 18 21 24 21 14 11 12 12 10 9 7 5 3 1 1 1 2 2 3 2 1 1 0 0 0 1 1 1 0 0
0 0 0 0 0 0 0 0 1 3 4 5 8 12 16 18 22 23 22 21 22 25 25 20 16 15 14 11 9 8 6 3 1 0 1 2 3 3 3 3 2 1 1 1 1 0 0 0 0
0 0 0 0 0 0 0 0 1 3 5 8 11 15 17 20 24 27 27 26 25 24 25 24 22 20 16 11 8 6 4 2 0 0 1 3 4 4 4 3 3 3 3 2 1 1 0 0 0
0 0 0 0 0 0 0 0 1 3 5 9 14 17 19 21 24 27 28 27 26 24 23 24 25 23 19 13 8 6 5 3 1 1 3 4 5 6 5 5 5 7 7 6 4 3 2 1 1
0 0 0 0 0 0 0 1 2 3 4 7 13 18 20 20 22 23 23 23 24 24 25 27 29 28 24 18 12 10 9 7 4 3 4 5 6 6 6 7 8 10 12 12 11 9 7 5 4
0 0 0 0 0 0 0 1 2 2 3 6 12 17 19 18 18 18 18 18 20 23 27 32 33 31 29 24 19 16 15 12 8 6 6 7 7 6 6 7 9 12 15 17 17 15 12 8 7
0 0 0 0 0 0 0 1 1 2 5 8 12 17 19 19 17 16 16 17 19 23 28 33 34 32 31 29 25 21 18 17 15 11 9 9 8 7 7 7 8 11 15 18 18 17 15 13 10
0 0 0 0 0 0 0 0 0 2 7 12 16 19 21 21 20 19 18 20 23 24 26 29 31 31 32 32 30 26 22 21 19 15 12 11 11 10 9 9 10 12 16 19 19 18 18 17 16
0 0 0 0 0 0 0 0 0 2 8 14 19 23 23 21 20 21 21 22 24 25 24 24 27 30 32 34 32 30 26 23 20 16 14 13 12 11 10 11 13 14 16 20 21 19 19 19 19
Wind_Speed
7 4 2 0 3 4 4 3 5 6 6 7 11 11 9 7 5 7 4 10 12 10 9 13 15 16 16 16 16 16 16 16 16 16 15 15 15 14 14 13 13 12 12 11 11 11 11 10 10
4 4 1 2 4 4 3 4 8 9 10 10 12 11 10 8 7 10 7 11 13 11 8 11 16 15 16 15 15 15 15 15 15 15 14 14 14 13 13 12 12 11 11 10 10 10 9 9 8
4 3 1 3 3 3 4 5 9 11 9 7 7 7 6 6 8 6 8 13 11 9 8 11 17 16 15 15 15 15 15 15 14 14 13 13 13 12 12 11 11 10 10 9 9 8 8 7 7
2 1 2 3 4 3 6 6 10 11 9 8 9 8 5 6 6 9 13 13 12 9 8 11 16 15 15 15 15 15 15 14 13 13 12 12 11 11 11 10 10 9 9 8 8 7 7 6 5
1 2 4 3 3 3 5 8 9 9 7 9 11 9 5 5 13 15 13 13 12 9 7 9 15 15 14 15 14 14 14 13 13 12 11 11 10 10 9 9 9 9 8 7 7 6 5 4 4
1 2 3 2 4 4 5 8 11 13 13 12 11 9 5 9 14 13 12 11 10 10 8 9 14 15 14 14 13 13 13 13 12 11 11 10 9 9 8 8 8 8 7 6 6 5 4 3 2
2 2 2 3 5 5 6 8 10 11 11 8 9 7 5 8 11 12 11 10 9 9 8 6 7 9 13 13 13 12 12 12 11 10 10 10 9 8 8 7 7 7 6 6 5 4 3 2 1
3 3 1 2 4 4 5 6 8 11 9 10 7 8 7 9 12 12 10 9 8 7 7 6 5 5 5 7 12 12 12 11 11 10 10 9 8 8 7 6 6 6 5 5 4 4 3 2 2
2 3 1 3 5 5 8 10 7 7 10 6 5 7 11 15 15 12 10 8 7 7 5 6 5 5 5 4 9 10 11 10 9 8 9 7 3 3 3 5 6 5 5 5 4 4 3 3 3
4 4 4 4 6 7 9 11 8 7 10 8 10 12 14 14 15 14 12 11 9 9 7 6 6 5 5 5 4 3 4 4 4 3 4 3 2 2 3 4 6 5 5 5 5 4 4 3 1
3 5 3 3 6 9 8 9 7 10 7 10 14 16 15 14 12 12 12 11 10 9 9 7 7 6 5 3 4 2 2 2 3 4 4 3 2 2 2 1 2 2 4 2 2 2 2 2 2
3 3 4 4 6 9 8 7 7 6 8 13 16 17 15 13 12 12 11 10 9 9 9 8 7 6 5 4 4 3 2 2 2 3 4 3 2 2 2 1 1 1 1 2 1 1 2 3 3
2 1 2 4 6 8 9 8 8 7 11 14 14 14 13 12 10 9 10 9 9 9 9 8 7 7 5 5 3 4 3 3 3 3 4 4 3 3 2 2 1 2 2 2 2 2 3 3 3
2 1 2 5 6 7 12 8 8 9 13 14 14 12 11 12 11 9 9 9 9 8 8 7 7 6 5 4 3 3 3 3 3 3 4 5 4 3 3 2 2 2 2 2 2 3 2 2 1
2 3 3 2 4 5 9 6 7 12 14 13 12 12 11 10 11 11 11 10 9 9 8 8 7 6 5 4 3 3 3 3 3 3 3 4 4 3 2 2 2 2 2 2 1 1 1 1 1
4 4 1 3 3 4 8 5 7 11 13 12 11 12 11 10 10 11 11 10 9 9 8 8 8 6 5 4 3 2 3 3 3 3 2 3 3 3 2 2 2 2 1 1 1 1 1 1 1
5 1 2 3 1 4 6 5 7 10 12 11 11 11 11 9 9 10 11 10 10 10 9 7 6 7 5 4 3 3 2 2 2 2 2 3 4 4 3 2 2 1 1 0 1 0 1 1 1
3 2 2 2 2 3 5 5 8 11 12 12 11 10 11 11 11 11 11 11 10 9 8 7 6 6 5 3 2 2 2 2 2 2 3 3 3 3 2 2 2 1 1 0 0 1 1 1 2
5 3 4 5 4 2 5 8 10 11 11 11 10 11 11 11 10 10 11 11 10 8 7 7 7 6 4 3 2 2 2 2 1 2 4 4 3 3 3 2 1 1 1 1 1 1 0 1 1
4 4 4 4 4 4 4 6 8 11 13 13 14 14 13 11 9 10 10 11 11 10 9 8 7 7 6 4 3 3 2 2 2 2 3 4 4 3 3 3 2 2 1 0 1 0 0 1 0
5 6 6 4 1 2 4 0 4 6 7 9 11 12 13 15 14 12 11 11 11 11 11 9 8 7 6 5 3 1 1 1 0 1 2 3 4 4 3 3 3 2 2 2 2 1 2 1 1
6 8 6 3 2 1 2 2 5 6 6 10 11 10 12 12 12 12 12 12 12 11 10 9 8 7 6 6 4 4 3 3 3 3 3 3 4 4 4 3 3 3 2 3 2 2 2 2 1
6 5 5 4 3 1 1 2 5 3 5 9 11 12 12 12 14 14 14 13 11 11 10 8 8 7 6 6 6 5 4 3 2 2 3 3 3 3 4 4 3 3 3 3 3 2 2 2 2
2 3 4 4 5 1 4 3 4 4 8 7 8 10 11 12 12 11 11 10 9 9 9 8 8 7 7 7 6 6 6 5 3 3 3 3 2 2 3 3 3 4 3 4 4 3 3 2 2
5 6 4 5 4 4 3 2 5 6 6 8 8 9 10 10 11 11 11 10 10 10 10 9 9 8 7 7 7 6 6 6 6 5 5 4 3 3 4 4 3 4 4 4 3 3 3 2 2
2 8 7 4 4 4 3 1 5 3 3 5 6 7 9 9 9 11 12 11 11 12 11 10 10 8 8 8 7 6 6 4 4 4 4 4 4 4 4 4 4 5 4 4 3 3 3 3 3
1 2 7 8 2 1 3 2 4 4 5 4 5 6 7 8 8 9 9 9 9 10 11 11 10 9 9 8 7 6 6 5 5 4 4 3 3 4 4 4 4 5 5 5 4 3 3 3 3
3 3 5 5 4 1 3 2 3 3 3 4 5 5 6 7 7 7 7 7 6 7 7 8 9 9 8 7 6 6 6 6 5 4 4 4 4 4 4 4 4 4 4 4 4 3 3 3 3
1 2 4 4 5 6 2 5 5 7 6 7 6 5 6 7 8 7 6 6 5 5 5 5 7 7 7 7 7 5 5 5 4 4 5 5 4 4 4 4 4 4 4 4 4 4 4 4 4
3 3 5 4 2 4 4 5 3 6 6 8 7 6 6 6 6 6 6 6 5 4 4 4 5 6 7 7 6 6 5 5 5 5 5 4 5 5 5 4 4 5 5 4 5 5 5 5 5
Wind_Direction
175 172 172 186 49 51 72 91 101 89 67 67 77 84 82 64 92 123 137 135 135 137 134 129 126 123 121 117 114 112 110 108 106 105 106 106 105 105 106 107 108 108 108 107 106 108 109 109 109
164 175 183 44 70 76 67 93 97 103 123 109 81 77 74 70 82 109 123 136 135 135 132 132 131 128 125 120 118 117 115 113 110 109 108 109 108 108 109 110 111 110 110 110 110 110 110 110 109
178 199 120 65 76 124 122 110 111 112 116 103 87 63 66 93 106 115 135 138 134 132 132 138 134 133 129 125 123 121 118 117 116 114 112 112 112 112 112 114 115 113 112 113 114 114 112 110 108
163 117 50 71 93 121 129 135 120 114 90 84 97 79 68 100 115 127 135 137 133 133 136 142 138 137 134 130 128 125 123 123 122 119 118 117 117 117 117 118 120 119 117 116 117 116 112 110 109
139 84 62 74 95 95 122 124 114 111 96 95 98 96 79 84 114 127 135 138 137 138 140 144 141 140 137 135 133 131 129 128 127 125 124 123 122 121 122 124 124 125 122 120 120 119 120 117 111
57 71 76 99 108 108 116 114 102 102 110 109 104 101 93 121 124 134 135 137 138 141 142 144 145 144 142 140 139 138 136 135 134 133 131 130 130 130 129 129 131 134 135 135 133 131 133 128 117
109 93 129 135 112 111 121 116 115 123 123 122 122 102 114 136 137 137 136 135 135 137 139 143 148 148 149 148 148 146 144 143 144 143 142 141 141 142 142 143 147 150 152 152 154 155 161 171 184
165 111 102 126 126 126 128 111 121 128 118 123 122 126 149 160 143 136 133 130 133 136 143 147 145 144 150 155 157 156 156 154 154 155 153 154 155 157 158 158 162 166 169 173 179 184 197 213 232
126 89 150 165 141 132 127 110 106 102 112 115 108 125 146 145 138 135 131 128 138 146 152 152 152 152 155 165 168 164 164 164 163 163 165 163 162 170 169 174 179 184 190 198 203 210 223 240 250
119 134 197 187 144 136 132 126 130 113 103 96 101 118 136 140 143 145 148 152 158 161 167 165 164 167 169 174 155 156 165 169 172 177 174 166 174 194 186 197 201 207 213 222 226 236 247 262 271
147 166 186 144 147 136 128 125 122 121 124 142 142 145 148 147 150 153 158 162 166 167 171 172 171 173 172 162 150 164 168 172 186 190 182 170 172 187 193 198 216 237 239 247 258 269 266 263 254
128 165 155 144 137 129 129 130 117 129 151 150 147 149 150 153 159 160 162 165 163 163 170 172 172 169 168 158 162 171 170 178 185 183 180 170 169 179 196 197 207 228 241 232 242 256 261 262 261
130 151 123 140 122 119 117 119 117 118 129 136 143 149 156 159 163 165 163 162 160 162 166 169 165 162 161 157 167 168 175 180 183 187 185 176 176 185 196 205 209 226 229 216 225 242 257 260 257
178 98 93 114 113 122 118 117 104 130 136 140 149 158 163 166 165 160 162 163 166 166 166 165 163 163 158 158 165 169 171 172 176 189 188 182 176 180 186 198 212 225 223 222 219 228 239 248 235
81 74 40 100 108 127 116 100 128 145 146 149 158 163 167 170 169 169 170 167 168 165 163 163 164 161 159 159 165 163 172 167 179 191 190 180 171 171 177 193 214 226 220 216 212 245 250 262 254
26 45 27 270 126 135 106 135 153 154 151 158 167 170 171 175 176 173 170 166 163 159 159 167 168 162 164 160 156 156 164 167 180 189 179 171 173 175 176 190 225 235 221 192 183 219 260 288 275
20 26 261 288 163 144 122 158 170 166 159 167 175 175 174 176 178 174 170 166 162 163 163 168 164 164 170 165 159 155 151 168 182 184 180 181 179 178 175 197 231 230 215 211 231 155 193 244 269
245 251 261 245 239 130 133 169 182 176 174 176 178 175 176 181 183 176 169 166 163 165 164 164 159 166 162 155 141 126 144 183 186 189 196 198 196 184 172 201 237 223 170 223 251 229 240 233 250
196 209 237 240 212 152 165 175 187 183 182 179 179 182 182 185 180 170 166 165 163 164 164 164 160 167 159 155 159 157 184 199 201 201 199 203 202 195 185 198 217 200 179 214 222 209 315 301 290
206 223 253 275 217 171 177 194 193 188 193 187 185 187 184 177 170 172 168 168 170 169 172 171 172 172 173 174 171 169 170 190 199 209 206 206 201 199 195 191 203 200 182 224 229 150 23 303 333
240 215 218 226 344 66 114 84 200 210 202 197 196 191 182 180 178 177 172 172 172 176 179 181 182 176 175 170 150 139 98 45 326 225 218 216 200 198 198 193 197 201 182 201 220 195 178 240 287
245 231 199 178 110 256 144 198 251 208 198 199 199 190 185 184 179 178 176 176 178 183 180 178 176 173 173 167 165 174 185 201 217 210 212 226 215 211 203 196 195 198 193 205 220 194 188 180 247
229 226 179 180 137 63 338 134 277 191 202 204 193 187 185 183 181 182 180 178 178 177 176 177 173 177 177 176 180 186 201 212 216 208 211 225 234 229 217 198 193 199 201 207 212 208 200 190 197
222 43 44 51 71 11 254 148 265 222 207 195 186 184 183 179 178 180 178 173 173 174 177 176 174 183 184 183 185 191 198 203 202 211 215 223 232 239 233 213 203 205 206 209 210 207 208 207 203
65 81 38 5 15 260 273 131 244 237 198 176 174 177 176 174 171 170 170 173 174 175 179 178 179 188 188 186 190 195 197 197 204 209 210 210 218 226 233 226 214 214 211 206 198 200 214 213 208
171 136 155 187 210 273 339 204 265 268 133 138 145 149 157 168 174 174 176 176 179 180 182 181 185 193 192 192 198 199 196 198 207 205 201 208 212 221 225 222 221 220 212 209 195 202 215 211 216
152 182 169 138 133 91 297 300 335 37 83 99 117 126 146 156 167 174 173 176 180 182 186 189 188 192 195 196 196 198 197 200 206 208 208 217 222 227 222 221 223 221 212 207 197 207 220 220 224
163 166 89 106 137 187 293 274 217 202 144 129 127 138 145 145 147 155 164 173 182 182 183 189 189 193 192 191 197 203 205 207 206 202 214 221 225 229 222 224 224 223 219 216 206 210 216 217 235
350 38 95 113 148 150 198 267 222 189 167 155 150 144 142 143 150 155 158 159 155 153 167 176 186 189 188 190 197 202 201 205 203 209 220 224 226 225 225 227 224 220 218 218 214 223 224 228 242
157 160 134 139 219 153 154 260 267 172 156 145 147 144 138 138 143 152 153 144 142 146 156 180 185 188 193 188 186 199 201 200 203 217 226 227 229 230 227 225 224 223 221 217 216 224 228 226 235